Погода в Верхней Синячихе

Россия / Свердловская область     57°58′51″N   61°39′44″E
темп.,
°C
ветер,
м/с
пор.,
м/с
влажн.,
%
обл.,
%
осадки,
мм/ч
давл.,
гПа
погр.,
м
2 декабря, чт
чт223:00+3ююв61987100 0.2 993737
02:00+3ю61486100 1.1 992754
05:00+2ю51387100 1.1 992504
08:00+2ю41291100 0.2 991552
11:00+3ююз41091100 0.3 992570
14:00+2зюз4108698 0.1 994764
17:00−1з511805 0.1 996774
20:00−3зюз5118081 0.0 999939
3 декабря, пт
пт323:00−4зюз5117570 0.0 1000985
02:00−3зюз5117789 0.0 1001957
05:00−3юз4117851 0.0 10011027
08:00−3зюз51175100 0.0 10011176
11:00−4зюз61271100 0.1 10031190
14:00−3зюз61270100 0.0 10041212
17:00−4зюз51272100 0.0 10061090
20:00−4зюз51275100 0.0 1008957
4 декабря, сб
сб423:00−4з4118071 0.0 1010826
02:00−5зюз311875 0.0 1013552
05:00−5юз37925 0.0 1014224
08:00−5ююз2894100 0.0 1016208
11:00−3ююз3119299 0.0 1016317
14:000ю41197100 0.1 1014456
17:00+1ююз51497100 0.4 1012769
20:00+2ююз61684100 0.0 1011758
5 декабря, вс
вс523:00+2юз61678100 0.0 1010872
02:00+2юз51380100 0.0 10091020
05:00+2юз51386100 0.0 1009840
08:00+1юз41193100 0.0 1009603
11:000юз3898100 0.8 1009468
14:000з2499100 1.3 1008149
17:00−5с359194 1.8 1010307
20:00−7с3485100 0.2 1012370
6 декабря, пн
пн623:00−8ссз2384100 0.3 1014358
02:00−9ссв2287100 0.1 1015288
05:00−10с4586100 0.6 1017432
08:00−13сз4681100 0.1 1019643
11:00−14ссз4677100 0.1 1022639
14:00−14сз467286 0.0 1024580
17:00−14сз37785 0.0 1026444
20:00−14з26875 0.0 1028278